�������l�o���
Date,Time,MP-1(��Sv/h),MP-2(��Sv/h),MP-3(��Sv/h),MP-4(��Sv/h),MP-5(��Sv/h),MP-6(��Sv/h),MP-7(��Sv/h),MP-8(��Sv/h),����,����(m/s),���J
2021/10/30,00:00,0.580,0.871,0.555,1.062,0.745,0.355,0.618,0.581,���k��,7.1,��
2021/10/30,00:10,0.581,0.873,0.553,1.063,0.744,0.354,0.618,0.579,���k��,6.8,��
2021/10/30,00:20,0.580,0.870,0.553,1.062,0.744,0.354,0.616,0.579,���k��,5.9,��
2021/10/30,00:30,0.581,0.871,0.552,1.061,0.746,0.354,0.618,0.580,���k��,5.8,��
2021/10/30,00:40,0.579,0.870,0.552,1.064,0.746,0.355,0.616,0.581,���k��,5.5,��
2021/10/30,00:50,0.581,0.871,0.554,1.065,0.745,0.355,0.617,0.580,���k��,6.2,��
2021/10/30,01:00,0.580,0.871,0.554,1.064,0.744,0.355,0.618,0.580,���k��,6.2,��
2021/10/30,01:10,0.580,0.871,0.554,1.062,0.746,0.354,0.617,0.580,��,7.0,��
2021/10/30,01:20,0.579,0.870,0.554,1.065,0.745,0.354,0.617,0.580,���k��,6.7,��
2021/10/30,01:30,0.578,0.872,0.552,1.064,0.746,0.355,0.618,0.581,���k��,5.9,��
2021/10/30,01:40,0.579,0.870,0.554,1.063,0.747,0.354,0.618,0.577,���k��,6.3,��
2021/10/30,01:50,0.580,0.873,0.554,1.064,0.745,0.355,0.617,0.579,���k��,6.2,��
2021/10/30,02:00,0.580,0.871,0.552,1.065,0.746,0.354,0.616,0.580,�k��,6.3,��
2021/10/30,02:10,0.580,0.872,0.555,1.063,0.746,0.355,0.618,0.580,�k��,5.8,��
2021/10/30,02:20,0.581,0.870,0.552,1.065,0.745,0.353,0.618,0.580,�k��,5.9,��
2021/10/30,02:30,0.581,0.871,0.554,1.064,0.746,0.355,0.618,0.580,�k��,5.3,��
2021/10/30,02:40,0.579,0.872,0.555,1.063,0.747,0.354,0.617,0.579,���k��,5.2,��
2021/10/30,02:50,0.580,0.870,0.554,1.065,0.745,0.356,0.617,0.579,���k��,4.9,��
2021/10/30,03:00,0.580,0.870,0.553,1.065,0.744,0.354,0.617,0.579,�k��,5.1,��
2021/10/30,03:10,0.580,0.870,0.553,1.064,0.744,0.355,0.619,0.581,�k��,5.6,��
2021/10/30,03:20,0.581,0.870,0.554,1.064,0.746,0.355,0.619,0.580,�k��,5.7,��
2021/10/30,03:30,0.580,0.870,0.554,1.063,0.746,0.355,0.616,0.579,�k��,5.7,��
2021/10/30,03:40,0.580,0.870,0.553,1.063,0.746,0.355,0.618,0.579,�k��,5.2,��
2021/10/30,03:50,0.578,0.871,0.554,1.064,0.746,0.354,0.617,0.579,�k��,5.1,��
2021/10/30,04:00,0.580,0.871,0.553,1.065,0.746,0.355,0.618,0.579,�k��,4.9,��
2021/10/30,04:10,0.580,0.874,0.553,1.064,0.745,0.355,0.617,0.579,���k��,4.4,��
2021/10/30,04:20,0.579,0.872,0.553,1.067,0.744,0.355,0.616,0.579,���k��,3.8,��
2021/10/30,04:30,0.580,0.871,0.553,1.063,0.746,0.355,0.617,0.580,���k��,4.1,��
2021/10/30,04:40,0.579,0.872,0.552,1.063,0.744,0.356,0.617,0.580,���k��,3.9,��
2021/10/30,04:50,0.580,0.871,0.553,1.062,0.744,0.354,0.617,0.578,���k��,4.6,��
2021/10/30,05:00,0.579,0.873,0.553,1.064,0.742,0.356,0.615,0.580,���k��,4.6,��
2021/10/30,05:10,0.580,0.869,0.554,1.064,0.746,0.355,0.616,0.580,���k��,4.3,��
2021/10/30,05:20,0.579,0.870,0.550,1.065,0.746,0.354,0.615,0.579,���k��,4.0,��
2021/10/30,05:30,0.580,0.872,0.552,1.064,0.743,0.354,0.616,0.579,�k��,3.3,��
2021/10/30,05:40,0.580,0.870,0.553,1.063,0.745,0.354,0.616,0.580,�k��,3.9,��
2021/10/30,05:50,0.578,0.871,0.554,1.063,0.745,0.354,0.615,0.580,���k��,3.4,��
2021/10/30,06:00,0.581,0.870,0.554,1.065,0.745,0.354,0.615,0.578,���k��,4.2,��
2021/10/30,06:10,0.579,0.870,0.552,1.065,0.745,0.353,0.616,0.579,�k��,3.5,��
2021/10/30,06:20,0.579,0.869,0.553,1.065,0.744,0.354,0.614,0.580,�k��,3.8,��
2021/10/30,06:30,0.579,0.867,0.552,1.062,0.745,0.354,0.615,0.580,���k��,3.6,��
2021/10/30,06:40,0.579,0.869,0.554,1.064,0.745,0.355,0.614,0.579,���k��,3.6,��
2021/10/30,06:50,0.579,0.869,0.552,1.065,0.745,0.354,0.615,0.579,��,3.6,��
2021/10/30,07:00,0.577,0.870,0.551,1.064,0.746,0.354,0.617,0.579,���k��,3.9,��
2021/10/30,07:10,0.578,0.870,0.551,1.063,0.747,0.355,0.616,0.579,���k��,3.6,��
2021/10/30,07:20,0.580,0.870,0.551,1.064,0.744,0.354,0.615,0.579,���k��,3.1,��
2021/10/30,07:30,0.578,0.872,0.555,1.064,0.746,0.354,0.616,0.581,���k��,3.1,��
2021/10/30,07:40,0.578,0.874,0.554,1.064,0.745,0.356,0.616,0.579,�k��,2.3,��
2021/10/30,07:50,0.580,0.873,0.554,1.064,0.744,0.355,0.617,0.580,���k��,2.6,��
2021/10/30,08:00,0.581,0.871,0.554,1.063,0.744,0.353,0.617,0.579,���k��,1.7,��
2021/10/30,08:10,0.580,0.872,0.553,1.063,0.745,0.355,0.616,0.579,�k��,1.2,��
2021/10/30,08:20,0.582,0.872,0.554,1.066,0.745,0.355,0.616,0.579,�k�k��,0.6,��
2021/10/30,08:30,0.582,0.870,0.553,1.063,0.745,0.353,0.616,0.579,�k�k��,1.1,��
2021/10/30,08:40,0.581,0.869,0.554,1.064,0.748,0.354,0.616,0.579,���k��,0.9,��
2021/10/30,08:50,0.582,0.868,0.553,1.064,0.746,0.356,0.615,0.579,-,CALM,��
2021/10/30,09:00,0.581,0.869,0.553,1.064,0.746,0.355,0.615,0.580,-,CALM,��
2021/10/30,09:10,0.580,0.869,0.554,1.064,0.747,0.355,0.614,0.580,���쓌,0.8,��
2021/10/30,09:20,0.581,0.868,0.554,1.065,0.748,0.354,0.615,0.581,�쓌,1.7,��
2021/10/30,09:30,0.579,0.868,0.554,1.064,0.747,0.354,0.615,0.579,���쓌,1.9,��
2021/10/30,09:40,0.579,0.871,0.552,1.065,0.749,0.354,0.615,0.581,���쓌,2.3,��
2021/10/30,09:50,0.579,0.870,0.555,1.064,0.747,0.355,0.615,0.581,���쓌,2.6,��
2021/10/30,10:00,0.580,0.867,0.554,1.066,0.748,0.355,0.616,0.580,��,2.5,��
2021/10/30,10:10,0.580,0.870,0.554,1.065,0.748,0.355,0.614,0.581,���쓌,3.0,��
2021/10/30,10:20,0.579,0.870,0.553,1.065,0.746,0.353,0.615,0.581,��,2.3,��
2021/10/30,10:30,0.581,0.872,0.554,1.066,0.744,0.353,0.615,0.581,��,2.6,��
2021/10/30,10:40,0.581,0.872,0.552,1.066,0.746,0.352,0.614,0.581,���쓌,3.3,��
2021/10/30,10:50,0.581,0.872,0.555,1.065,0.746,0.354,0.613,0.579,���쓌,3.4,��
2021/10/30,11:00,0.581,0.872,0.553,1.066,0.749,0.353,0.616,0.578,��,3.2,��
2021/10/30,11:10,0.582,0.872,0.552,1.066,0.746,0.353,0.616,0.579,���k��,3.2,��
2021/10/30,11:20,0.582,0.872,0.554,1.064,0.747,0.354,0.616,0.580,���k��,2.9,��
2021/10/30,11:30,0.581,0.873,0.552,1.066,0.748,0.353,0.615,0.580,���k��,3.1,��
2021/10/30,11:40,0.580,0.872,0.554,1.065,0.748,0.354,0.614,0.580,���k��,3.2,��
2021/10/30,11:50,0.582,0.873,0.554,1.066,0.747,0.353,0.615,0.580,���k��,2.6,��
2021/10/30,12:00,0.583,0.875,0.555,1.066,0.747,0.354,0.617,0.579,���k��,3.6,��
2021/10/30,12:10,0.580,0.874,0.555,1.066,0.747,0.354,0.617,0.578,��,3.1,��
2021/10/30,12:20,0.581,0.873,0.554,1.066,0.748,0.354,0.615,0.578,��,2.6,��
2021/10/30,12:30,0.582,0.874,0.554,1.065,0.750,0.355,0.616,0.578,��,2.6,��
2021/10/30,12:40,0.581,0.875,0.554,1.065,0.748,0.354,0.615,0.579,���쓌,3.3,��
2021/10/30,12:50,0.582,0.874,0.556,1.066,0.749,0.355,0.615,0.578,���쓌,2.6,��
2021/10/30,13:00,0.583,0.875,0.552,1.067,0.749,0.356,0.614,0.578,��,3.4,��
2021/10/30,13:10,0.583,0.871,0.555,1.067,0.749,0.355,0.616,0.578,��,2.9,��
2021/10/30,13:20,0.581,0.873,0.554,1.068,0.748,0.356,0.614,0.580,���쓌,3.6,��
2021/10/30,13:30,0.582,0.872,0.554,1.066,0.748,0.355,0.617,0.579,���쓌,2.5,��
2021/10/30,13:40,0.582,0.874,0.554,1.066,0.747,0.356,0.615,0.579,��,2.9,��
2021/10/30,13:50,0.583,0.873,0.553,1.068,0.747,0.356,0.615,0.579,���쓌,2.8,��
2021/10/30,14:00,0.581,0.874,0.553,1.068,0.748,0.356,0.614,0.578,���쓌,2.5,��
2021/10/30,14:10,0.580,0.873,0.554,1.068,0.749,0.355,0.614,0.578,���쓌,3.0,��
2021/10/30,14:20,0.582,0.876,0.554,1.066,0.748,0.355,0.615,0.579,���쓌,2.6,��
2021/10/30,14:30,0.582,0.877,0.554,1.066,0.747,0.356,0.616,0.579,���쓌,3.3,��
2021/10/30,14:40,0.582,0.875,0.555,1.068,0.748,0.356,0.615,0.578,���쓌,2.9,��
2021/10/30,14:50,0.582,0.874,0.556,1.068,0.750,0.355,0.615,0.577,���쓌,2.5,��
2021/10/30,15:00,0.581,0.874,0.554,1.064,0.749,0.355,0.616,0.578,�쓌,3.2,��
2021/10/30,15:10,0.582,0.875,0.554,1.068,0.748,0.355,0.614,0.579,���쓌,1.9,��
2021/10/30,15:20,0.581,0.876,0.554,1.068,0.747,0.355,0.616,0.579,�쓌,2.6,��
2021/10/30,15:30,0.582,0.879,0.555,1.068,0.747,0.355,0.616,0.580,�쓌,1.9,��
2021/10/30,15:40,0.581,0.879,0.553,1.068,0.748,0.356,0.617,0.580,�쓌,2.6,��
2021/10/30,15:50,0.581,0.879,0.554,1.068,0.748,0.357,0.615,0.581,��쓌,1.7,��
2021/10/30,16:00,0.582,0.877,0.555,1.067,0.748,0.356,0.616,0.581,���쓌,2.5,��
2021/10/30,16:10,0.582,0.879,0.554,1.066,0.749,0.356,0.616,0.582,�쓌,1.4,��
2021/10/30,16:20,0.581,0.878,0.555,1.067,0.748,0.356,0.616,0.581,�쓌,1.4,��
2021/10/30,16:30,0.580,0.881,0.554,1.068,0.747,0.356,0.617,0.582,�쓌,2.0,��
2021/10/30,16:40,0.581,0.881,0.556,1.067,0.749,0.356,0.618,0.580,�쓌,2.3,��
2021/10/30,16:50,0.581,0.878,0.554,1.066,0.747,0.355,0.617,0.583,��쓌,1.5,��
2021/10/30,17:00,0.582,0.879,0.555,1.067,0.749,0.355,0.616,0.580,�쓌,2.3,��
2021/10/30,17:10,0.583,0.879,0.556,1.067,0.749,0.356,0.616,0.579,�쓌,2.3,��
2021/10/30,17:20,0.584,0.879,0.556,1.068,0.751,0.354,0.617,0.579,�쓌,2.9,��
2021/10/30,17:30,0.584,0.881,0.555,1.067,0.751,0.355,0.617,0.581,��,3.3,��
2021/10/30,17:40,0.585,0.880,0.555,1.067,0.752,0.354,0.616,0.580,��,2.9,��
2021/10/30,17:50,0.583,0.877,0.555,1.066,0.750,0.354,0.616,0.580,��,3.3,��
2021/10/30,18:00,0.582,0.880,0.556,1.067,0.749,0.354,0.615,0.580,��,2.3,��
2021/10/30,18:10,0.583,0.878,0.556,1.068,0.751,0.356,0.617,0.580,��,2.3,��
2021/10/30,18:20,0.581,0.879,0.553,1.066,0.751,0.355,0.617,0.581,��,2.0,��
2021/10/30,18:30,0.582,0.878,0.555,1.067,0.749,0.355,0.615,0.581,��,2.0,��
2021/10/30,18:40,0.582,0.878,0.556,1.066,0.751,0.355,0.616,0.581,��,2.3,��
2021/10/30,18:50,0.581,0.875,0.555,1.069,0.750,0.356,0.616,0.581,��,2.3,��
2021/10/30,19:00,0.584,0.878,0.555,1.066,0.750,0.355,0.617,0.579,��,2.6,��
2021/10/30,19:10,0.583,0.875,0.554,1.067,0.749,0.355,0.616,0.581,��,2.0,��
2021/10/30,19:20,0.583,0.878,0.557,1.067,0.749,0.354,0.616,0.581,��,2.2,��
2021/10/30,19:30,0.584,0.878,0.554,1.067,0.751,0.355,0.615,0.580,��,2.5,��
2021/10/30,19:40,0.582,0.877,0.554,1.067,0.752,0.355,0.617,0.581,��,2.6,��
2021/10/30,19:50,0.583,0.877,0.555,1.065,0.750,0.353,0.616,0.579,��,2.8,��
2021/10/30,20:00,0.583,0.876,0.556,1.067,0.752,0.354,0.617,0.581,��,2.9,��
2021/10/30,20:10,0.583,0.875,0.555,1.068,0.749,0.355,0.616,0.579,��쐼,2.8,��
2021/10/30,20:20,0.583,0.876,0.556,1.067,0.751,0.354,0.616,0.581,��쐼,2.2,��
2021/10/30,20:30,0.582,0.879,0.553,1.066,0.751,0.355,0.616,0.581,��쐼,3.3,��
2021/10/30,20:40,0.583,0.877,0.557,1.065,0.750,0.355,0.615,0.580,��쐼,3.1,��
2021/10/30,20:50,0.582,0.877,0.555,1.065,0.752,0.356,0.615,0.579,��,3.1,��
2021/10/30,21:00,0.584,0.873,0.555,1.066,0.750,0.356,0.616,0.581,��쐼,3.0,��
2021/10/30,21:10,0.583,0.878,0.556,1.066,0.750,0.354,0.616,0.580,��쐼,2.9,��
2021/10/30,21:20,0.583,0.875,0.556,1.066,0.751,0.354,0.614,0.583,��쐼,2.6,��
2021/10/30,21:30,0.581,0.873,0.555,1.066,0.751,0.355,0.615,0.580,��,2.9,��
2021/10/30,21:40,0.582,0.877,0.555,1.066,0.751,0.356,0.616,0.580,��쐼,3.0,��
2021/10/30,21:50,0.583,0.876,0.557,1.067,0.748,0.355,0.616,0.579,��,3.0,��
2021/10/30,22:00,0.582,0.876,0.554,1.066,0.751,0.355,0.615,0.580,��쐼,2.3,��
2021/10/30,22:10,0.581,0.875,0.555,1.067,0.751,0.355,0.615,0.581,��쐼,2.2,��
2021/10/30,22:20,0.583,0.876,0.556,1.067,0.750,0.354,0.617,0.579,��쐼,2.3,��
2021/10/30,22:30,0.583,0.875,0.555,1.066,0.749,0.355,0.615,0.581,�쐼,1.7,��
2021/10/30,22:40,0.582,0.875,0.553,1.068,0.749,0.354,0.616,0.581,�쐼,1.5,��
2021/10/30,22:50,0.584,0.875,0.555,1.068,0.750,0.354,0.616,0.582,��쐼,1.9,��
2021/10/30,23:00,0.583,0.875,0.556,1.068,0.752,0.357,0.616,0.580,��쐼,1.7,��
2021/10/30,23:10,0.583,0.876,0.555,1.065,0.752,0.356,0.616,0.581,��,2.0,��
2021/10/30,23:20,0.583,0.876,0.555,1.066,0.750,0.355,0.617,0.581,��쐼,1.7,��
2021/10/30,23:30,0.581,0.876,0.556,1.067,0.751,0.355,0.616,0.580,��쐼,2.3,��
2021/10/30,23:40,0.582,0.874,0.555,1.067,0.748,0.355,0.616,0.580,��쐼,1.9,��
2021/10/30,23:50,0.583,0.876,0.556,1.066,0.748,0.354,0.616,0.579,��쐼,2.0,��
